GFSNE_500_temp_000.txt.gz
Temp
-23 -23 -23 -23 -23 -23 -23 -23 -22 -21 -21 -21 -21 -21 -20 -20 -19 -19 -18 -18 -18 -18 -17 -17 -17 -17 -17 -16 -16 -17 -16 -16 -17 -16 -16 -16 -16 -16
-24 -23 -23 -23 -23 -23 -23 -23 -23 -22 -21 -21 -21 -21 -20 -20 -20 -20 -19 -19 -19 -18 -18 -17 -18 -17 -17 -17 -17 -17 -17 -17 -17 -17 -17 -17 -17 -16
-24 -24 -23 -23 -23 -23 -24 -23 -23 -23 -22 -21 -21 -20 -20 -20 -20 -20 -19 -19 -19 -19 -18 -17 -17 -18 -18 -17 -17 -18 -17 -17 -17 -17 -17 -17 -17 -17
-24 -25 -25 -25 -25 -25 -25 -24 -24 -24 -24 -22 -22 -21 -20 -20 -20 -19 -19 -19 -19 -18 -19 -19 -18 -18 -18 -19 -18 -17 -18 -18 -18 -17 -17 -17 -17 -18
-25 -25 -26 -26 -26 -26 -26 -25 -25 -25 -25 -24 -22 -22 -22 -21 -21 -20 -19 -19 -19 -20 -19 -19 -18 -18 -18 -19 -17 -18 -17 -18 -18 -18 -18 -18 -18 -18
-27 -27 -27 -28 -28 -28 -28 -28 -28 -27 -27 -27 -26 -24 -24 -23 -23 -22 -21 -20 -19 -21 -21 -20 -19 -19 -18 -18 -18 -18 -18 -18 -18 -19 -18 -17 -18 -18
-29 -30 -30 -31 -31 -31 -31 -31 -30 -30 -30 -30 -30 -29 -29 -28 -27 -26 -25 -23 -21 -22 -23 -22 -21 -21 -20 -19 -19 -19 -18 -18 -18 -19 -19 -18 -18 -17
-31 -31 -31 -30 -30 -30 -30 -30 -30 -29 -29 -29 -29 -29 -29 -30 -31 -31 -30 -28 -24 -23 -25 -24 -23 -21 -22 -20 -20 -20 -19 -19 -19 -19 -19 -19 -19 -18
-30 -30 -30 -30 -30 -29 -29 -29 -29 -28 -28 -28 -28 -29 -29 -30 -30 -31 -31 -31 -28 -26 -26 -25 -24 -23 -22 -22 -21 -21 -20 -19 -19 -20 -19 -19 -19 -19
-29 -29 -29 -29 -29 -29 -29 -28 -28 -28 -28 -28 -28 -28 -29 -29 -30 -30 -31 -31 -31 -30 -28 -27 -26 -25 -24 -22 -22 -21 -20 -20 -20 -20 -20 -20 -20 -20
-29 -29 -28 -28 -28 -28 -28 -28 -28 -28 -28 -28 -28 -28 -28 -29 -30 -30 -30 -31 -31 -31 -29 -28 -27 -26 -24 -22 -22 -21 -21 -21 -20 -20 -20 -20 -20 -20
-28 -28 -28 -28 -28 -28 -28 -28 -28 -29 -29 -29 -29 -29 -29 -29 -29 -30 -30 -31 -31 -31 -30 -28 -27 -26 -25 -24 -22 -21 -21 -21 -21 -21 -21 -21 -20 -20
-28 -28 -29 -29 -29 -29 -29 -29 -29 -29 -29 -29 -29 -29 -29 -29 -29 -30 -29 -30 -31 -31 -31 -29 -28 -27 -25 -24 -23 -22 -22 -21 -21 -21 -21 -21 -21 -21
-29 -29 -29 -29 -29 -29 -29 -29 -29 -29 -29 -29 -29 -29 -29 -29 -29 -30 -30 -30 -32 -32 -31 -30 -28 -27 -26 -24 -23 -22 -23 -22 -22 -21 -21 -21 -21 -22
-29 -29 -29 -29 -29 -29 -29 -29 -29 -29 -29 -29 -30 -30 -30 -30 -30 -30 -30 -30 -31 -32 -32 -32 -29 -28 -27 -26 -25 -23 -24 -22 -22 -22 -22 -23 -22 -22
-28 -29 -29 -30 -30 -30 -29 -29 -29 -29 -30 -30 -30 -30 -31 -31 -31 -31 -30 -30 -32 -33 -33 -32 -30 -28 -27 -26 -26 -25 -23 -22 -23 -22 -22 -22 -22 -22
-28 -29 -29 -29 -29 -29 -29 -29 -30 -30 -30 -31 -31 -32 -32 -32 -32 -31 -31 -32 -34 -33 -33 -33 -31 -28 -27 -26 -26 -25 -23 -23 -23 -23 -22 -22 -22 -23
-28 -28 -28 -29 -29 -29 -29 -29 -29 -30 -30 -31 -32 -34 -34 -33 -33 -34 -34 -34 -34 -34 -33 -33 -32 -30 -28 -27 -26 -26 -23 -23 -23 -24 -22 -22 -22 -23
-29 -28 -28 -28 -28 -29 -29 -29 -29 -30 -30 -31 -32 -34 -34 -34 -34 -34 -34 -34 -34 -34 -33 -33 -32 -31 -29 -28 -27 -26 -24 -24 -23 -23 -23 -23 -24 -24
-30 -29 -29 -28 -28 -28 -29 -29 -29 -30 -31 -31 -32 -33 -34 -34 -34 -34 -35 -35 -34 -34 -33 -33 -33 -32 -30 -28 -27 -27 -26 -25 -24 -24 -23 -24 -23 -24
-29 -29 -29 -29 -28 -28 -29 -29 -30 -30 -31 -31 -32 -33 -34 -34 -34 -35 -35 -35 -34 -34 -34 -33 -33 -32 -31 -29 -27 -27 -26 -26 -26 -24 -24 -23 -24 -24
-30 -30 -29 -29 -29 -29 -29 -30 -30 -30 -30 -31 -31 -31 -31 -32 -33 -34 -34 -34 -34 -34 -34 -33 -33 -33 -31 -29 -27 -27 -26 -26 -26 -25 -25 -24 -24 -24
-30 -30 -30 -30 -29 -29 -29 -29 -29 -30 -30 -30 -30 -30 -31 -31 -31 -32 -33 -33 -34 -34 -34 -34 -33 -33 -31 -29 -28 -27 -27 -26 -26 -25 -25 -24 -24 -25

GFSNE_500_temp_003.txt.gz
Temp
-25 -25 -25 -24 -24 -24 -24 -23 -23 -22 -22 -21 -21 -21 -21 -20 -20 -20 -19 -19 -19 -18 -18 -17 -17 -17 -17 -16 -16 -15 -15 -16 -15 -15 -16 -16 -16 -16
-25 -24 -24 -24 -24 -24 -24 -24 -24 -23 -22 -22 -22 -22 -22 -21 -21 -20 -20 -20 -19 -19 -18 -18 -17 -17 -17 -17 -16 -16 -15 -16 -16 -16 -16 -17 -16 -16
-24 -24 -24 -24 -24 -24 -24 -24 -24 -24 -23 -23 -23 -23 -23 -22 -22 -21 -21 -21 -20 -20 -19 -19 -18 -17 -17 -17 -17 -16 -15 -16 -16 -17 -16 -17 -17 -17
-25 -25 -25 -25 -25 -25 -25 -25 -24 -24 -23 -22 -22 -22 -22 -22 -22 -22 -22 -22 -21 -21 -20 -20 -19 -18 -18 -17 -17 -16 -17 -17 -16 -17 -17 -17 -17 -18
-26 -26 -26 -26 -26 -26 -26 -25 -25 -25 -24 -22 -22 -22 -22 -22 -22 -21 -22 -22 -22 -21 -21 -20 -20 -19 -18 -18 -17 -17 -18 -18 -18 -17 -17 -18 -18 -18
-27 -27 -27 -27 -27 -27 -27 -26 -26 -26 -26 -25 -24 -23 -22 -22 -21 -21 -21 -21 -21 -21 -21 -20 -20 -20 -19 -18 -18 -18 -18 -17 -18 -18 -18 -18 -18 -18
-28 -29 -30 -30 -31 -31 -31 -30 -30 -29 -28 -27 -25 -25 -25 -24 -24 -23 -22 -21 -21 -21 -20 -20 -20 -20 -20 -19 -19 -18 -18 -18 -18 -18 -18 -18 -18 -17
-31 -31 -31 -31 -31 -31 -31 -31 -31 -31 -30 -30 -29 -28 -28 -27 -27 -26 -25 -23 -23 -22 -22 -21 -20 -20 -20 -19 -19 -19 -18 -18 -18 -18 -17 -18 -18 -18
-30 -30 -30 -30 -30 -29 -29 -30 -30 -30 -30 -30 -29 -29 -29 -29 -29 -29 -29 -28 -26 -25 -24 -22 -21 -21 -21 -20 -19 -19 -20 -19 -19 -19 -18 -19 -18 -18
-29 -29 -29 -29 -29 -29 -29 -29 -29 -29 -29 -29 -29 -29 -28 -29 -29 -29 -29 -29 -30 -29 -29 -26 -25 -22 -22 -21 -20 -20 -20 -19 -19 -19 -19 -18 -18 -18
-29 -29 -28 -28 -28 -28 -28 -28 -28 -28 -29 -28 -28 -28 -28 -28 -28 -29 -28 -28 -28 -29 -29 -30 -29 -27 -25 -24 -22 -21 -21 -20 -19 -21 -18 -19 -19 -18
-29 -29 -29 -28 -28 -29 -29 -28 -29 -29 -29 -29 -28 -28 -28 -28 -28 -28 -29 -28 -28 -28 -29 -30 -30 -30 -30 -27 -25 -24 -23 -22 -21 -21 -21 -20 -19 -19
-28 -29 -28 -28 -29 -29 -29 -29 -29 -29 -29 -29 -29 -29 -29 -28 -29 -29 -29 -29 -29 -28 -29 -30 -31 -32 -31 -30 -28 -27 -25 -24 -23 -23 -22 -21 -21 -20
-29 -28 -29 -29 -29 -29 -30 -29 -29 -29 -29 -29 -29 -30 -30 -30 -30 -30 -30 -29 -29 -29 -30 -30 -31 -31 -32 -31 -29 -28 -27 -25 -23 -22 -22 -22 -22 -21
-29 -29 -29 -30 -30 -30 -30 -30 -29 -30 -29 -29 -29 -30 -30 -30 -30 -30 -29 -29 -29 -29 -30 -29 -30 -32 -32 -31 -29 -28 -28 -27 -24 -22 -23 -21 -21 -21
-29 -29 -29 -29 -30 -30 -30 -30 -30 -30 -30 -30 -30 -31 -31 -31 -31 -31 -31 -30 -30 -30 -30 -30 -31 -32 -32 -32 -30 -28 -28 -27 -26 -23 -23 -23 -23 -21
-28 -28 -29 -29 -29 -30 -29 -29 -29 -30 -30 -30 -30 -31 -31 -31 -32 -32 -32 -32 -32 -31 -30 -31 -32 -33 -33 -32 -31 -29 -28 -27 -26 -24 -22 -23 -23 -22
-29 -28 -27 -28 -29 -29 -30 -30 -30 -30 -30 -30 -31 -31 -32 -33 -33 -33 -33 -33 -32 -31 -31 -31 -33 -33 -33 -32 -31 -29 -28 -27 -27 -25 -24 -24 -23 -23
-30 -28 -27 -28 -29 -29 -29 -29 -29 -30 -30 -31 -32 -33 -33 -34 -34 -34 -33 -33 -32 -31 -31 -32 -33 -33 -33 -32 -31 -30 -28 -28 -27 -26 -24 -24 -24 -24
-30 -29 -28 -28 -28 -29 -29 -29 -29 -30 -30 -31 -31 -33 -34 -34 -34 -34 -34 -33 -33 -33 -33 -34 -34 -33 -33 -32 -32 -31 -29 -28 -28 -27 -26 -25 -24 -24
-30 -30 -29 -29 -29 -29 -29 -29 -29 -30 -30 -31 -31 -32 -33 -34 -34 -34 -34 -34 -33 -34 -34 -34 -34 -34 -34 -33 -32 -32 -31 -29 -28 -28 -25 -26 -26 -25
-30 -30 -29 -29 -29 -29 -29 -29 -30 -30 -30 -30 -30 -30 -31 -32 -33 -34 -35 -35 -35 -35 -34 -34 -34 -34 -34 -33 -32 -32 -31 -29 -28 -27 -27 -26 -25 -25
-31 -30 -30 -29 -29 -29 -30 -30 -30 -30 -30 -30 -30 -30 -30 -31 -32 -33 -34 -34 -34 -34 -34 -34 -34 -34 -34 -33 -33 -32 -30 -29 -28 -27 -27 -26 -26 -26

GFSNE_500_temp_006.txt.gz
Temp
-26 -26 -26 -26 -26 -26 -25 -25 -24 -23 -23 -23 -23 -22 -22 -20 -20 -20 -19 -19 -19 -19 -18 -19 -19 -18 -18 -18 -17 -16 -15 -15 -15 -15 -15 -15 -15 -15
-26 -26 -26 -26 -26 -25 -25 -25 -24 -24 -23 -24 -24 -23 -22 -22 -21 -20 -21 -20 -20 -19 -19 -19 -19 -18 -18 -18 -18 -17 -16 -15 -16 -16 -15 -15 -15 -15
-26 -26 -26 -26 -25 -25 -25 -25 -24 -24 -23 -23 -23 -24 -23 -22 -22 -21 -21 -21 -20 -20 -19 -19 -19 -19 -18 -18 -17 -18 -17 -16 -16 -16 -16 -16 -15 -16
-26 -26 -26 -25 -25 -25 -25 -24 -24 -24 -24 -23 -23 -23 -24 -23 -23 -22 -22 -21 -21 -21 -20 -19 -19 -19 -18 -18 -18 -17 -17 -17 -16 -16 -16 -16 -16 -16
-26 -26 -26 -26 -26 -26 -25 -25 -25 -24 -24 -23 -23 -23 -23 -23 -23 -23 -22 -22 -21 -21 -21 -20 -19 -19 -19 -18 -18 -18 -17 -17 -17 -18 -17 -16 -16 -16
-27 -27 -27 -27 -27 -26 -26 -26 -26 -25 -25 -24 -23 -23 -23 -23 -23 -23 -23 -23 -22 -21 -21 -21 -20 -19 -19 -19 -18 -18 -17 -17 -17 -17 -17 -17 -17 -17
-27 -28 -28 -28 -29 -29 -29 -29 -29 -28 -27 -26 -26 -25 -24 -23 -23 -23 -23 -23 -23 -23 -22 -21 -21 -21 -20 -19 -19 -19 -18 -18 -18 -17 -16 -17 -17 -17
-29 -30 -31 -30 -30 -31 -30 -31 -31 -30 -30 -30 -28 -27 -27 -26 -25 -24 -23 -23 -23 -23 -22 -22 -22 -21 -21 -20 -20 -19 -19 -19 -19 -18 -18 -17 -17 -17
-30 -30 -30 -30 -30 -30 -30 -30 -30 -30 -30 -30 -29 -30 -30 -30 -28 -26 -25 -24 -23 -23 -23 -22 -22 -22 -22 -21 -20 -20 -20 -19 -19 -19 -18 -18 -17 -17
-30 -29 -29 -29 -29 -29 -29 -29 -29 -29 -29 -29 -29 -29 -30 -30 -30 -30 -28 -26 -25 -24 -24 -22 -22 -22 -22 -22 -21 -21 -20 -20 -20 -19 -19 -19 -18 -18
-29 -29 -29 -29 -29 -29 -28 -28 -28 -28 -29 -28 -28 -29 -29 -29 -29 -30 -30 -29 -28 -27 -27 -25 -24 -24 -23 -22 -21 -21 -21 -21 -20 -20 -19 -19 -19 -19
-29 -29 -29 -29 -29 -29 -29 -29 -29 -29 -29 -29 -28 -28 -28 -29 -29 -29 -29 -29 -29 -29 -29 -29 -28 -27 -26 -25 -23 -22 -21 -21 -21 -21 -20 -20 -19 -19
-29 -29 -29 -29 -29 -29 -29 -29 -29 -29 -30 -30 -29 -29 -29 -29 -29 -29 -28 -28 -28 -28 -28 -28 -29 -29 -29 -29 -27 -25 -22 -21 -21 -20 -20 -20 -19 -19
-28 -28 -28 -28 -29 -30 -30 -30 -30 -30 -30 -30 -30 -30 -30 -29 -29 -29 -29 -29 -28 -28 -28 -28 -28 -28 -29 -29 -29 -29 -27 -24 -22 -21 -20 -20 -20 -19
-28 -28 -29 -29 -29 -30 -30 -30 -30 -30 -30 -30 -30 -30 -30 -30 -29 -29 -30 -29 -29 -29 -29 -28 -28 -28 -28 -28 -28 -28 -29 -28 -26 -23 -22 -21 -21 -20
-29 -29 -28 -29 -29 -29 -30 -30 -29 -29 -30 -30 -30 -30 -30 -30 -30 -30 -30 -30 -30 -30 -29 -29 -29 -29 -29 -29 -28 -28 -29 -30 -30 -28 -26 -24 -22 -22
-29 -28 -28 -28 -29 -29 -29 -30 -30 -30 -30 -30 -30 -30 -31 -31 -31 -31 -31 -31 -31 -30 -30 -30 -29 -30 -30 -30 -30 -30 -29 -30 -31 -30 -30 -28 -25 -24
-29 -28 -28 -28 -29 -29 -29 -29 -29 -29 -30 -30 -31 -31 -32 -32 -32 -32 -32 -32 -31 -31 -31 -31 -30 -31 -31 -31 -31 -30 -29 -31 -31 -30 -30 -29 -28 -27
-30 -29 -28 -28 -29 -29 -29 -29 -30 -30 -30 -31 -31 -31 -33 -34 -34 -34 -34 -34 -34 -33 -32 -32 -32 -31 -31 -31 -31 -30 -30 -31 -31 -30 -30 -29 -28 -27
-31 -30 -29 -28 -28 -29 -29 -29 -30 -30 -30 -30 -30 -31 -33 -34 -35 -34 -34 -34 -33 -33 -33 -32 -32 -31 -31 -32 -31 -31 -32 -32 -31 -31 -30 -29 -28 -27
-31 -31 -30 -29 -29 -29 -29 -29 -29 -30 -30 -30 -30 -31 -32 -33 -34 -34 -35 -34 -34 -34 -33 -32 -32 -32 -32 -33 -33 -33 -33 -33 -32 -31 -30 -30 -29 -28
-31 -31 -30 -30 -30 -30 -30 -30 -30 -30 -30 -30 -30 -30 -31 -32 -33 -34 -34 -34 -34 -34 -34 -33 -33 -33 -33 -33 -33 -33 -33 -33 -32 -31 -30 -30 -28 -27
-31 -31 -30 -30 -30 -30 -30 -30 -30 -30 -30 -30 -30 -30 -31 -32 -32 -33 -34 -34 -34 -35 -34 -34 -34 -34 -34 -34 -34 -33 -33 -33 -32 -31 -30 -29 -28 -28

GFSNE_500_temp_009.txt.gz
Temp
-25 -25 -25 -25 -25 -26 -26 -26 -25 -24 -24 -25 -24 -25 -25 -24 -24 -22 -22 -21 -20 -19 -19 -18 -18 -18 -17 -17 -16 -16 -15 -16 -15 -15 -15 -15 -15 -15
-25 -26 -26 -26 -26 -26 -26 -26 -26 -26 -25 -25 -25 -25 -25 -24 -24 -23 -22 -22 -21 -20 -19 -19 -18 -18 -18 -17 -18 -18 -16 -16 -16 -15 -16 -15 -15 -15
-26 -26 -26 -26 -26 -26 -26 -26 -26 -26 -25 -25 -24 -25 -25 -25 -25 -24 -23 -23 -22 -21 -20 -19 -19 -18 -18 -18 -19 -20 -19 -18 -16 -16 -16 -16 -16 -16
-27 -27 -27 -27 -27 -27 -26 -26 -26 -26 -25 -25 -24 -24 -25 -25 -25 -25 -24 -23 -23 -22 -21 -20 -19 -19 -18 -18 -19 -19 -19 -19 -19 -18 -16 -16 -16 -16
-27 -27 -27 -27 -27 -27 -27 -26 -26 -25 -25 -25 -24 -24 -24 -24 -24 -25 -24 -24 -23 -23 -22 -21 -20 -19 -19 -18 -18 -19 -19 -19 -19 -19 -17 -16 -16 -17
-28 -28 -27 -27 -27 -27 -27 -27 -27 -26 -26 -26 -25 -24 -24 -24 -24 -24 -24 -25 -24 -23 -23 -22 -21 -20 -19 -20 -19 -18 -19 -19 -19 -19 -18 -17 -17 -17
-28 -28 -28 -28 -27 -28 -28 -28 -28 -28 -27 -27 -27 -26 -25 -24 -24 -24 -24 -24 -24 -24 -23 -23 -23 -22 -21 -20 -19 -19 -19 -19 -18 -19 -18 -19 -17 -17
-28 -28 -28 -29 -30 -30 -30 -30 -30 -30 -30 -30 -29 -28 -27 -26 -25 -24 -24 -24 -24 -24 -24 -24 -23 -23 -22 -21 -21 -20 -20 -19 -19 -19 -19 -19 -19 -18
-28 -28 -30 -30 -30 -30 -30 -29 -29 -29 -29 -29 -30 -30 -30 -30 -29 -27 -26 -25 -24 -24 -24 -23 -23 -23 -23 -22 -21 -21 -20 -20 -20 -19 -19 -19 -19 -19
-29 -30 -30 -29 -29 -29 -29 -29 -29 -29 -29 -29 -29 -29 -29 -29 -29 -30 -29 -27 -25 -25 -24 -23 -23 -23 -23 -23 -22 -22 -21 -21 -20 -20 -19 -19 -19 -19
-30 -29 -29 -29 -29 -29 -29 -29 -29 -29 -29 -29 -28 -28 -29 -29 -29 -29 -29 -30 -28 -27 -26 -25 -24 -23 -23 -23 -23 -23 -22 -22 -21 -20 -20 -20 -19 -19
-30 -29 -29 -28 -29 -29 -29 -29 -30 -30 -29 -29 -29 -29 -29 -29 -29 -29 -29 -29 -29 -30 -29 -27 -26 -25 -24 -23 -23 -23 -23 -23 -22 -21 -20 -20 -19 -19
-29 -29 -29 -29 -29 -28 -29 -30 -30 -30 -30 -30 -29 -29 -30 -29 -29 -29 -29 -29 -29 -29 -30 -30 -29 -27 -25 -25 -24 -24 -23 -23 -22 -22 -21 -21 -20 -20
-29 -29 -29 -28 -29 -30 -30 -30 -30 -30 -30 -30 -30 -30 -30 -30 -30 -29 -29 -29 -29 -29 -29 -29 -29 -29 -29 -27 -27 -26 -25 -24 -23 -22 -22 -21 -21 -20
-29 -28 -28 -29 -29 -29 -30 -30 -30 -30 -30 -30 -30 -30 -30 -30 -30 -30 -30 -29 -29 -29 -29 -29 -28 -28 -29 -29 -29 -29 -28 -26 -25 -24 -23 -22 -21 -21
-30 -29 -29 -29 -29 -29 -29 -30 -30 -30 -30 -30 -30 -30 -30 -30 -30 -30 -30 -30 -30 -29 -30 -29 -29 -29 -28 -28 -28 -29 -29 -29 -28 -27 -26 -24 -22 -21
-30 -30 -29 -28 -28 -29 -29 -29 -29 -29 -30 -30 -30 -30 -31 -31 -31 -31 -31 -31 -31 -31 -31 -30 -30 -29 -29 -29 -28 -28 -29 -29 -29 -28 -28 -28 -26 -23
-31 -30 -29 -28 -28 -29 -29 -29 -29 -30 -30 -30 -30 -31 -31 -32 -32 -33 -32 -32 -32 -32 -31 -31 -31 -30 -30 -29 -29 -29 -29 -29 -29 -28 -28 -28 -28 -28
-31 -30 -29 -28 -28 -29 -29 -29 -29 -29 -29 -29 -30 -30 -32 -32 -33 -34 -34 -34 -33 -32 -32 -31 -31 -31 -31 -30 -30 -30 -30 -29 -29 -29 -28 -28 -28 -28
-31 -31 -30 -30 -29 -29 -29 -29 -29 -30 -29 -29 -30 -31 -32 -33 -34 -34 -35 -34 -34 -34 -34 -34 -33 -32 -31 -31 -31 -31 -30 -30 -29 -29 -29 -29 -29 -29
-32 -31 -31 -31 -30 -29 -29 -29 -29 -30 -30 -30 -30 -31 -31 -32 -33 -34 -34 -35 -35 -35 -34 -34 -34 -33 -33 -32 -32 -31 -31 -31 -30 -30 -30 -30 -30 -30
-32 -31 -31 -31 -30 -30 -30 -30 -30 -30 -30 -30 -30 -30 -31 -31 -32 -33 -34 -34 -34 -34 -34 -34 -33 -33 -33 -32 -32 -32 -32 -31 -31 -30 -31 -31 -31 -31
-32 -32 -31 -31 -30 -30 -30 -30 -30 -30 -30 -30 -30 -30 -31 -31 -31 -31 -32 -33 -34 -34 -34 -34 -34 -33 -33 -32 -33 -33 -33 -32 -32 -32 -32 -32 -32 -31

GFSNE_500_temp_012.txt.gz
Temp
-24 -25 -25 -25 -25 -25 -25 -26 -25 -25 -25 -25 -25 -25 -25 -25 -25 -25 -25 -24 -24 -22 -21 -21 -20 -19 -19 -18 -17 -17 -18 -17 -16 -16 -15 -15 -15 -15
-27 -27 -26 -26 -26 -26 -26 -26 -26 -26 -25 -25 -25 -25 -25 -25 -26 -26 -25 -25 -25 -24 -22 -22 -21 -20 -19 -19 -18 -18 -18 -17 -17 -16 -16 -16 -15 -15
-27 -27 -27 -26 -26 -26 -27 -27 -26 -26 -26 -26 -25 -25 -25 -25 -26 -26 -26 -26 -25 -24 -23 -22 -22 -21 -20 -19 -19 -18 -18 -18 -17 -18 -17 -16 -16 -15
-28 -28 -28 -28 -28 -27 -27 -27 -27 -27 -26 -26 -26 -25 -25 -25 -25 -26 -26 -26 -25 -25 -24 -23 -23 -22 -20 -20 -19 -18 -19 -18 -18 -17 -18 -16 -16 -16
-28 -28 -28 -28 -28 -27 -27 -27 -27 -27 -27 -26 -26 -25 -25 -25 -25 -25 -26 -26 -25 -25 -25 -24 -24 -23 -21 -21 -20 -20 -19 -18 -18 -18 -17 -18 -16 -16
-28 -28 -28 -28 -28 -28 -27 -27 -27 -27 -27 -27 -27 -26 -26 -26 -26 -26 -25 -26 -26 -26 -25 -24 -24 -24 -22 -22 -21 -20 -19 -19 -19 -18 -18 -17 -18 -16
-29 -29 -29 -28 -28 -28 -28 -28 -28 -28 -27 -27 -27 -27 -27 -27 -26 -27 -26 -26 -26 -26 -26 -25 -24 -25 -24 -22 -22 -21 -20 -19 -20 -19 -19 -18 -17 -17
-29 -29 -29 -29 -28 -28 -28 -28 -29 -29 -30 -30 -30 -30 -30 -29 -28 -27 -27 -26 -25 -26 -25 -26 -25 -24 -24 -24 -23 -22 -21 -20 -20 -19 -19 -19 -19 -18
-29 -29 -29 -29 -28 -29 -30 -30 -29 -29 -29 -29 -29 -29 -29 -30 -30 -29 -29 -28 -27 -26 -25 -25 -25 -24 -24 -24 -23 -22 -22 -21 -20 -20 -19 -19 -20 -19
-29 -29 -28 -29 -30 -30 -29 -29 -29 -29 -29 -29 -29 -29 -29 -29 -29 -29 -30 -30 -29 -28 -27 -25 -25 -25 -24 -24 -24 -23 -23 -22 -22 -20 -20 -20 -18 -20
-29 -29 -29 -30 -29 -29 -29 -29 -29 -30 -30 -30 -29 -29 -29 -29 -29 -29 -29 -29 -29 -29 -29 -27 -26 -26 -25 -24 -23 -23 -23 -23 -22 -22 -21 -20 -20 -19
-30 -29 -30 -29 -29 -29 -29 -30 -30 -30 -30 -30 -30 -30 -29 -29 -29 -29 -29 -28 -29 -29 -30 -29 -28 -27 -26 -25 -24 -23 -23 -23 -23 -23 -22 -21 -21 -20
-30 -31 -30 -29 -29 -29 -29 -30 -30 -31 -31 -31 -30 -30 -30 -29 -29 -29 -29 -29 -28 -28 -29 -29 -29 -29 -27 -26 -25 -24 -24 -23 -23 -23 -22 -22 -22 -21
-31 -30 -30 -29 -29 -30 -30 -30 -30 -30 -30 -30 -30 -30 -30 -30 -31 -30 -30 -30 -29 -29 -29 -29 -29 -29 -30 -29 -27 -26 -25 -24 -23 -23 -23 -22 -22 -21
-31 -31 -30 -29 -29 -30 -29 -30 -30 -30 -30 -30 -30 -30 -30 -30 -30 -30 -30 -30 -30 -30 -30 -30 -29 -29 -29 -30 -30 -28 -27 -25 -24 -24 -23 -23 -22 -22
-32 -31 -30 -29 -29 -29 -29 -29 -29 -30 -30 -30 -30 -30 -31 -31 -31 -31 -31 -31 -30 -30 -31 -30 -30 -30 -29 -29 -30 -30 -30 -28 -26 -25 -24 -23 -23 -22
-32 -31 -30 -30 -29 -29 -29 -29 -30 -29 -29 -29 -30 -30 -31 -31 -31 -31 -32 -31 -31 -31 -31 -31 -30 -30 -30 -29 -29 -29 -30 -30 -30 -28 -27 -25 -24 -23
-32 -32 -30 -30 -30 -29 -29 -29 -29 -29 -29 -29 -30 -31 -32 -32 -33 -33 -33 -33 -32 -32 -32 -31 -31 -31 -30 -30 -30 -29 -29 -29 -30 -30 -29 -28 -27 -26
-32 -32 -31 -31 -30 -29 -29 -29 -29 -29 -29 -29 -29 -30 -31 -32 -33 -33 -34 -34 -34 -34 -33 -32 -32 -32 -31 -31 -30 -30 -30 -29 -29 -29 -29 -29 -29 -28
-32 -32 -32 -31 -31 -30 -30 -29 -29 -29 -29 -29 -29 -30 -30 -31 -32 -33 -34 -34 -34 -35 -34 -34 -33 -32 -32 -32 -31 -31 -31 -30 -30 -30 -29 -29 -29 -29
-32 -32 -31 -31 -31 -30 -30 -30 -30 -29 -29 -29 -29 -30 -30 -30 -31 -32 -33 -34 -34 -34 -34 -35 -34 -34 -33 -32 -32 -31 -31 -31 -30 -30 -30 -30 -29 -29
-32 -32 -32 -31 -31 -30 -30 -30 -30 -30 -30 -30 -30 -30 -30 -30 -31 -31 -32 -33 -34 -34 -34 -34 -34 -34 -34 -34 -34 -33 -32 -31 -31 -31 -30 -30 -30 -30
-33 -32 -32 -32 -31 -31 -31 -30 -30 -30 -30 -30 -30 -30 -30 -30 -30 -31 -31 -32 -32 -34 -34 -34 -34 -34 -34 -34 -33 -34 -33 -33 -32 -32 -32 -32 -31 -31